W7TRD Weather Reports


time (UTC)temp
C
wind
direction
speed
KPH
gust
KPH
rain 1hr
cm
rain 24hr
cm
rain mn
cm
humidity
%
barometer
mb
20260505214224 17 316 3.2 3.2 0.00 0.00 0.00 73 1017.4
20260505213721 17 95 3.2 6.4 0.00 0.00 0.00 72 1017.4
20260505213218 17 176 3.2 4.8 0.00 0.00 0.00 73 1017.5
20260505212714 17 169 1.6 4.8 0.00 0.00 0.00 74 1017.5
20260505212212 17 177 0.0 3.2 0.00 0.00 0.00 74 1017.5
20260505211708 17 157 1.6 4.8 0.00 0.00 0.00 74 1017.3
20260505211206 17 176 1.6 9.7 0.00 0.00 0.00 75 1017.4
20260505210702 17 219 1.6 6.4 0.00 0.00 0.00 74 1017.5
20260505210159 17 190 1.6 4.8 0.00 0.00 0.00 75 1017.5
20260505205656 17 304 3.2 4.8 0.00 0.00 0.00 74 1017.5
20260505205154 16 176 0.0 6.4 0.00 0.00 0.00 77 1017.5
20260505204651 16 182 1.6 4.8 0.00 0.00 0.00 76 1017.8
20260505204149 16 251 0.0 1.6 0.00 0.00 0.00 75 1017.7
20260505203646 16 199 1.6 3.2 0.00 0.00 0.00 76 1017.6
20260505203143 16 195 3.2 4.8 0.00 0.00 0.00 77 1017.8
20260505202638 16 180 0.0 1.6 0.00 0.00 0.00 78 1017.9
20260505202134 16 148 3.2 4.8 0.00 0.00 0.00 78 1017.5
20260505201631 16 168 0.0 3.2 0.00 0.00 0.00 80 1017.9
20260505201129 15 176 0.0 1.6 0.00 0.00 0.00 81 1017.8
20260505200627 15 169 0.0 1.6 0.00 0.00 0.00 81 1017.8
20260505200124 15 186 3.2 3.2 0.00 0.00 0.00 81 1017.8
20260505195620 15 171 0.0 0.0 0.00 0.00 0.00 82 1017.9
20260505195117 15 180 0.0 1.6 0.00 0.00 0.00 81 1017.9
20260505194614 15 181 0.0 3.2 0.00 0.00 0.00 79 1017.8
20260505194110 15 181 0.0 0.0 0.00 0.00 0.00 79 1017.8
20260505193607 15 185 0.0 1.6 0.00 0.00 0.00 79 1017.7
20260505193104 16 173 0.0 0.0 0.00 0.00 0.00 78 1017.9
20260505192603 15 174 0.0 1.6 0.00 0.00 0.00 79 1018.0
20260505192059 15 227 0.0 1.6 0.00 0.00 0.00 79 1017.7
20260505191558 16 176 0.0 1.6 0.00 0.00 0.00 77 1017.8
20260505191056 16 177 0.0 1.6 0.00 0.00 0.00 78 1017.8
20260505190556 15 176 0.0 3.2 0.00 0.00 0.00 80 1017.9
20260505190052 15 176 0.0 0.0 0.00 0.00 0.00 83 1017.8
20260505185549 15 343 1.6 4.8 0.00 0.00 0.00 83 1017.8
20260505185045 15 172 0.0 3.2 0.00 0.00 0.00 81 1017.7
20260505184542 15 184 0.0 1.6 0.00 0.00 0.00 83 1017.7
20260505184039 15 214 1.6 3.2 0.00 0.00 0.00 83 1017.7
20260505183536 15 178 0.0 0.0 0.00 0.00 0.00 83 1017.7
20260505183033 15 176 0.0 3.2 0.00 0.00 0.00 85 1017.8
20260505182529 15 180 0.0 1.6 0.00 0.00 0.00 84 1017.8
20260505182026 15 177 0.0 3.2 0.00 0.00 0.00 85 1017.7
20260505181523 15 170 0.0 1.6 0.00 0.00 0.00 82 1017.8
20260505181021 15 178 0.0 0.0 0.00 0.00 0.00 83 1017.8
20260505180516 14 178 0.0 1.6 0.00 0.00 0.00 85 1017.8
20260505180015 14 169 1.6 3.2 0.00 0.00 0.00 84 1017.7
20260505175509 14 164 0.0 0.0 0.00 0.00 0.00 85 1017.9
20260505175006 14 171 0.0 1.6 0.00 0.00 0.00 84 1017.6
20260505174503 15 183 1.6 1.6 0.00 0.00 0.00 83 1017.7
20260505173959 15 176 0.0 0.0 0.00 0.00 0.00 84 1017.5
20260505173455 15 187 0.0 1.6 0.00 0.00 0.00 83 1017.7
20260505172952 14 172 0.0 1.6 0.00 0.00 0.00 83 1017.5
20260505172451 14 175 0.0 1.6 0.00 0.00 0.00 85 1017.6
20260505171950 15 163 1.6 1.6 0.00 0.00 0.00 82 1017.7
20260505171447 15 177 0.0 1.6 0.00 0.00 0.00 84 1017.3
20260505170944 15 172 0.0 0.0 0.00 0.00 0.00 85 1017.6
20260505170441 14 179 0.0 0.0 0.00 0.00 0.00 84 1017.5
20260505165936 13 175 0.0 1.6 0.00 0.00 0.00 86 1017.1
20260505165432 13 161 0.0 1.6 0.00 0.00 0.00 88 1017.4
20260505164928 13 176 0.0 1.6 0.00 0.00 0.00 88 1017.4
20260505164425 13 163 0.0 1.6 0.00 0.00 0.00 88 1017.4
20260505163922 13 177 0.0 0.0 0.00 0.00 0.00 90 1017.3
20260505163421 13 158 1.6 1.6 0.00 0.00 0.00 89 1017.4
20260505162920 13 172 0.0 1.6 0.00 0.00 0.00 91 1017.4
20260505162415 12 171 0.0 1.6 0.00 0.00 0.00 92 1017.4
20260505161912 12 160 1.6 1.6 0.00 0.00 0.00 93 1017.6
20260505161409 12 178 0.0 0.0 0.00 0.00 0.00 93 1017.1
20260505160907 12 170 0.0 1.6 0.00 0.00 0.00 93 1017.4
20260505160405 12 172 0.0 0.0 0.00 0.00 0.00 94 1017.4
20260505153343 12 172 0.0 0.0 0.00 0.00 0.00 96 1017.0
20260505152840 12 167 0.0 0.0 0.00 0.00 0.00 96 1017.3
20260505152338 12 171 0.0 0.0 0.00 0.00 0.00 96 1016.9
20260505151832 12 174 0.0 1.6 0.00 0.00 0.00 96 1017.0
20260505151329 12 171 0.0 0.0 0.00 0.00 0.00 97 1016.9
20260505150826 12 173 0.0 0.0 0.00 0.00 0.00 97 1017.0
20260505150323 12 172 0.0 0.0 0.00 0.00 0.00 97 1016.8
20260505140252 11 178 0.0 0.0 0.00 0.00 0.00 98 1016.2
20260505130217 11 172 0.0 0.0 0.00 0.00 0.00 97 1016.0
20260505124706 11 194 0.0 3.2 0.00 0.00 0.00 97 1016.0
20260505124203 11 174 0.0 1.6 0.00 0.00 0.00 96 1016.0
20260505123659 11 176 0.0 1.6 0.00 0.00 0.00 96 1016.0
20260505123156 11 186 0.0 1.6 0.00 0.00 0.00 96 1016.1
20260505122653 11 161 1.6 1.6 0.00 0.00 0.00 96 1015.9
20260505122150 11 188 0.0 1.6 0.00 0.00 0.00 96 1015.9
20260505121646 11 244 1.6 3.2 0.00 0.00 0.00 96 1016.1
20260505121143 11 184 0.0 1.6 0.00 0.00 0.00 97 1015.9
20260505120640 11 173 0.0 0.0 0.00 0.00 0.00 97 1016.1
20260505120136 11 175 0.0 1.6 0.00 0.00 0.00 97 1015.9
20260505115635 11 178 0.0 3.2 0.00 0.00 0.00 97 1015.9
20260505115133 11 183 0.0 1.6 0.00 0.00 0.00 97 1016.0
20260505114630 11 177 0.0 0.0 0.00 0.00 0.00 96 1015.8
20260505114126 11 175 0.0 0.0 0.00 0.00 0.00 96 1015.9
20260505113623 11 165 0.0 1.6 0.00 0.00 0.00 96 1015.8
20260505113120 11 173 0.0 1.6 0.00 0.00 0.00 96 1015.9
20260505112615 12 178 0.0 1.6 0.00 0.00 0.00 95 1015.8
20260505112115 12 114 1.6 1.6 0.00 0.00 0.00 95 1015.8
20260505111614 12 172 0.0 1.6 0.00 0.00 0.00 94 1015.9
20260505111110 12 124 1.6 1.6 0.00 0.00 0.00 93 1015.9
20260505110606 12 175 0.0 0.0 0.00 0.00 0.00 92 1015.7
20260505110104 12 174 0.0 0.0 0.00 0.00 0.00 91 1015.8
20260505102039 12 176 0.0 1.6 0.00 0.00 0.00 90 1015.3
20260505101537 12 178 0.0 0.0 0.00 0.00 0.00 90 1015.3
20260505101033 12 176 0.0 0.0 0.00 0.00 0.00 90 1015.3
20260505100530 12 164 0.0 3.2 0.00 0.00 0.00 90 1015.4
20260505100027 12 179 0.0 0.0 0.00 0.00 0.00 90 1015.3
20260505095523 12 177 0.0 0.0 0.00 0.00 0.00 90 1015.4
20260505095020 12 162 0.0 0.0 0.00 0.00 0.00 90 1015.3
20260505094516 12 184 0.0 0.0 0.00 0.00 0.00 90 1015.4
20260505094013 12 176 0.0 1.6 0.00 0.00 0.00 90 1015.5
20260505093509 12 156 0.0 1.6 0.00 0.00 0.00 90 1015.3
20260505093007 12 157 1.6 3.2 0.00 0.00 0.00 90 1015.3
20260505092504 12 148 0.0 1.6 0.00 0.00 0.00 90 1015.4
20260505092002 12 166 0.0 1.6 0.00 0.00 0.00 90 1015.2
20260505091459 12 170 0.0 0.0 0.00 0.00 0.00 90 1015.2
20260505090957 12 173 0.0 1.6 0.00 0.00 0.00 90 1015.2
20260505090455 12 177 0.0 0.0 0.00 0.00 0.00 90 1015.1
20260505085952 12 177 0.0 1.6 0.00 0.00 0.00 91 1015.0
20260505085450 11 205 1.6 1.6 0.00 0.00 0.00 91 1014.8
20260505084948 11 176 0.0 0.0 0.00 0.00 0.00 91 1015.1
20260505084446 11 172 0.0 0.0 0.00 0.00 0.00 91 1015.0
20260505083943 11 174 0.0 1.6 0.00 0.00 0.00 91 1014.9
20260505083440 11 178 0.0 0.0 0.00 0.00 0.00 90 1014.8
20260505082937 12 175 0.0 0.0 0.00 0.00 0.00 90 1014.8
20260505082432 12 161 0.0 3.2 0.00 0.00 0.00 90 1014.8
20260505081930 12 174 1.6 1.6 0.00 0.00 0.00 90 1014.8
20260505081426 12 167 0.0 0.0 0.00 0.00 0.00 90 1014.7
20260505080923 12 173 0.0 1.6 0.00 0.00 0.00 89 1014.8
20260505080419 12 179 0.0 1.6 0.00 0.00 0.00 89 1014.8
20260505075914 12 181 0.0 1.6 0.00 0.00 0.00 89 1014.7
20260505075412 12 181 0.0 0.0 0.00 0.00 0.00 89 1014.8
20260505074909 12 176 0.0 0.0 0.00 0.00 0.00 89 1014.9
20260505074406 12 196 0.0 3.2 0.00 0.00 0.00 89 1014.7
20260505073903 12 164 0.0 0.0 0.00 0.00 0.00 89 1014.5
20260505073401 12 155 0.0 3.2 0.00 0.00 0.00 89 1014.3
20260505072858 12 182 0.0 1.6 0.00 0.00 0.00 89 1014.3
20260505072354 12 145 0.0 1.6 0.00 0.00 0.00 89 1014.2
20260505071850 12 175 0.0 3.2 0.00 0.00 0.00 89 1014.1
20260505071346 12 178 0.0 0.0 0.00 0.00 0.00 89 1014.0
20260505070845 12 176 0.0 0.0 0.00 0.00 0.00 89 1014.3
20260505070341 12 177 0.0 0.0 0.00 0.00 0.00 89 1014.3
20260505065836 12 177 0.0 0.0 0.00 0.00 0.00 89 1014.2
20260505065333 12 170 0.0 1.6 0.00 0.00 0.00 88 1014.3
20260505064830 12 164 0.0 0.0 0.00 0.00 0.00 88 1013.9
20260505064327 12 166 0.0 1.6 0.00 0.00 0.00 88 1013.9
20260505063826 12 176 0.0 0.0 0.00 0.00 0.00 87 1013.8
20260505063321 12 183 0.0 1.6 0.00 0.00 0.00 86 1013.7
20260505062818 12 194 1.6 1.6 0.00 0.00 0.00 86 1013.7
20260505062316 13 169 0.0 1.6 0.00 0.00 0.00 85 1013.5
20260505061812 13 172 0.0 1.6 0.00 0.00 0.00 85 1013.5
20260505061310 13 174 0.0 0.0 0.00 0.00 0.00 84 1013.2
20260505060808 13 205 0.0 0.0 0.00 0.00 0.00 84 1013.5
20260505060304 13 251 1.6 1.6 0.00 0.00 0.00 83 1013.3
20260505055800 13 186 0.0 6.4 0.00 0.00 0.00 82 1013.4
20260505055256 13 173 1.6 3.2 0.00 0.00 0.00 82 1013.2
20260505054754 14 173 1.6 4.8 0.00 0.00 0.00 81 1013.0
20260505054251 14 171 1.6 3.2 0.00 0.00 0.00 81 1013.1
20260505053749 14 302 3.2 3.2 0.00 0.00 0.00 80 1013.1
20260505053246 15 173 1.6 4.8 0.00 0.00 0.00 80 1012.9
20260505052743 15 162 3.2 3.2 0.00 0.00 0.00 79 1013.4
20260505052240 15 166 0.0 6.4 0.00 0.00 0.00 78 1013.2
20260505051737 15 178 3.2 4.8 0.00 0.00 0.00 77 1013.2
20260505051235 15 201 0.0 6.4 0.00 0.00 0.00 76 1013.2
20260505050732 16 25 1.6 3.2 0.00 0.00 0.00 76 1013.1
20260505050231 16 252 1.6 6.4 0.00 0.00 0.00 75 1013.1
20260505041700 17 192 0.0 1.6 0.00 0.00 0.00 72 1012.4
20260505041158 17 213 1.6 1.6 0.00 0.00 0.00 71 1012.3
20260505040654 17 193 1.6 1.6 0.00 0.00 0.00 71 1012.3
20260505040152 17 184 1.6 1.6 0.00 0.00 0.00 70 1012.1
20260505035648 17 170 0.0 1.6 0.00 0.00 0.00 70 1012.1
20260505035144 17 198 3.2 3.2 0.00 0.00 0.00 69 1012.0
20260505034641 18 351 3.2 4.8 0.00 0.00 0.00 68 1012.0
20260505034138 18 116 1.6 4.8 0.00 0.00 0.00 68 1011.8
20260505033634 18 178 0.0 4.8 0.00 0.00 0.00 67 1011.7
20260505033133 18 172 0.0 4.8 0.00 0.00 0.00 67 1011.8
20260505032631 19 173 0.0 1.6 0.00 0.00 0.00 67 1011.6
20260505032127 20 196 4.8 9.7 0.00 0.00 0.00 65 1011.5
20260505031624 20 113 1.6 4.8 0.00 0.00 0.00 65 1011.4
20260505031120 20 157 0.0 1.6 0.00 0.00 0.00 65 1011.3
20260505030617 21 213 1.6 1.6 0.00 0.00 0.00 66 1011.2
20260505030113 21 172 0.0 1.6 0.00 0.00 0.00 69 1011.1
20260505025609 21 169 0.0 1.6 0.00 0.00 0.00 68 1011.0
20260505025108 21 171 3.2 4.8 0.00 0.00 0.00 67 1010.9
20260505024605 21 171 1.6 4.8 0.00 0.00 0.00 67 1010.8
20260505024102 22 245 1.6 4.8 0.00 0.00 0.00 66 1010.9
20260505023559 22 156 1.6 4.8 0.00 0.00 0.00 65 1010.8
20260505023057 22 160 1.6 4.8 0.00 0.00 0.00 64 1010.7
20260505022554 22 168 3.2 6.4 0.00 0.00 0.00 63 1010.9
20260505022051 23 173 1.6 3.2 0.00 0.00 0.00 62 1010.6
20260505021548 23 174 1.6 3.2 0.00 0.00 0.00 61 1010.8
20260505021044 23 173 1.6 6.4 0.00 0.00 0.00 61 1010.9
20260505020544 23 173 0.0 3.2 0.00 0.00 0.00 60 1010.9
20260505020041 24 174 1.6 3.2 0.00 0.00 0.00 59 1010.8
20260505015538 23 174 0.0 4.8 0.00 0.00 0.00 60 1010.8
20260505015035 23 171 1.6 3.2 0.00 0.00 0.00 59 1010.9
20260505014532 24 173 0.0 4.8 0.00 0.00 0.00 58 1010.8
20260505014029 24 187 1.6 3.2 0.00 0.00 0.00 57 1010.8
20260505013527 25 165 3.2 3.2 0.00 0.00 0.00 57 1010.8
20260505013024 25 185 0.0 1.6 0.00 0.00 0.00 57 1010.9
20260505012522 25 175 1.6 3.2 0.00 0.00 0.00 56 1011.0
20260505012019 24 200 1.6 3.2 0.00 0.00 0.00 58 1010.7
20260505011514 24 138 3.2 3.2 0.00 0.00 0.00 56 1011.0
20260505011011 25 130 1.6 3.2 0.00 0.00 0.00 55 1011.1
20260505010506 25 225 1.6 3.2 0.00 0.00 0.00 54 1010.8
20260505010003 25 233 1.6 1.6 0.00 0.00 0.00 53 1011.1
20260505005500 25 168 1.6 1.6 0.00 0.00 0.00 54 1011.2
20260505004958 24 196 0.0 3.2 0.00 0.00 0.00 56 1011.1
20260505004454 25 179 1.6 3.2 0.00 0.00 0.00 53 1011.2
20260505003951 25 172 1.6 3.2 0.00 0.00 0.00 52 1011.2
20260505003448 25 174 1.6 3.2 0.00 0.00 0.00 55 1011.2
20260505002944 25 225 1.6 4.8 0.00 0.00 0.00 54 1011.3
20260505002440 25 177 0.0 3.2 0.00 0.00 0.00 53 1011.3
20260505001939 25 213 1.6 3.2 0.00 0.00 0.00 54 1011.5
20260505001436 25 215 1.6 3.2 0.00 0.00 0.00 53 1011.2
20260505000933 25 158 0.0 1.6 0.00 0.00 0.00 54 1011.4
20260505000431 24 198 3.2 6.4 0.00 0.00 0.00 54 1011.5
20260504235928 23 183 1.6 6.4 0.00 0.00 0.00 57 1011.2
20260504235425 24 202 1.6 4.8 0.00 0.00 0.00 54 1011.5
20260504234921 24 176 1.6 4.8 0.00 0.00 0.00 54 1011.5
20260504234419 25 166 1.6 4.8 0.00 0.00 0.00 53 1011.6
20260504233915 25 206 0.0 3.2 0.00 0.00 0.00 53 1011.6
20260504233411 24 217 0.0 4.8 0.00 0.00 0.00 54 1011.6
20260504232908 24 184 0.0 1.6 0.00 0.00 0.00 54 1011.6
20260504232405 24 188 3.2 4.8 0.00 0.00 0.00 55 1011.5
20260504231902 23 211 1.6 4.8 0.00 0.00 0.00 57 1011.7
20260504231358 23 126 1.6 3.2 0.00 0.00 0.00 56 1011.5
20260504230854 24 160 1.6 6.4 0.00 0.00 0.00 54 1012.0
20260504230352 24 178 3.2 3.2 0.00 0.00 0.00 55 1011.8
20260504225851 23 134 3.2 3.2 0.00 0.00 0.00 55 1011.9
20260504225347 23 148 4.8 11.3 0.00 0.00 0.00 56 1012.0
20260504224844 24 220 3.2 4.8 0.00 0.00 0.00 55 1012.1
20260504224341 23 204 4.8 4.8 0.00 0.00 0.00 55 1011.9
20260504223838 23 180 3.2 4.8 0.00 0.00 0.00 56 1012.2
20260504223333 23 191 3.2 6.4 0.00 0.00 0.00 56 1012.3
20260504222830 23 169 1.6 4.8 0.00 0.00 0.00 57 1012.2
20260504222327 23 110 3.2 4.8 0.00 0.00 0.00 56 1012.4
20260504221826 23 201 0.0 4.8 0.00 0.00 0.00 58 1012.4
20260504221322 23 98 1.6 3.2 0.00 0.00 0.00 55 1012.6
20260504220819 22 181 1.6 4.8 0.00 0.00 0.00 59 1012.4
20260504220315 22 171 0.0 4.8 0.00 0.00 0.00 60 1012.6
20260504215813 22 184 1.6 6.4 0.00 0.00 0.00 56 1012.7
20260504215309 21 118 4.8 4.8 0.00 0.00 0.00 58 1012.6
20260504214805 22 176 1.6 6.4 0.00 0.00 0.00 59 1012.6